Regional Weather Roundup
Issued by NWS

Home | Current Version | Previous Version | Graphics & Text | Print | Product List | Glossary On
Versions: 1 2 3 4 5 6 7 8 9 10 11 12 13 14 15 16 17 18 19 20 21 22 23 24 25 26 27 28 29 30 31 32 33 34 35 36 37 38 39 40 41 42 43 44 45 46 47 48 49 50
142
ASUS43 KOAX 110302
RWRNE

WEATHER ROUNDUP FOR NEBRASKA
NATIONAL WEATHER SERVICE OMAHA NE
900 PM CST WED FEB 10 2016

NOTES: SATELLITE DATA IS BEING USED TO AUGMENT CLOUD COVER ABOVE
       12000 FEET.
       "FAIR" INDICATES FEW OR NO CLOUDS BELOW 12,000 FEET WITH NO
       SIGNIFICANT WEATHER AND/OR OBSTRUCTIONS TO VISIBILITY.

  * THESE STATIONS DO NOT REPORT WEATHER SUCH AS RAIN...SNOW OR FOG.

NEZ001>004-019>022-054>056-110400-
NEBRASKA PANHANDLE

CITY           SKY/WX    TMP DP  RH WIND       PRES   REMARKS
SCOTTSBLUFF    CLEAR     38  26  62 NW9       30.12R WCI  31
ALLIANCE       CLEAR     33  28  81 W10       30.09R WCI  25
CHADRON        CLOUDY    33  25  72 CALM      30.10R
KIMBALL        CLOUDY    38  25  58 NW16      30.14F WCI  30
SIDNEY         CLOUDY    38  27  64 W16       30.12R WCI  29
$$

NEZ057>060-069>072-079>082-110400-
SOUTHWEST NEBRASKA

CITY           SKY/WX    TMP DP  RH WIND       PRES   REMARKS
NORTH PLATTE   CLOUDY    43  28  55 N13       30.05R
IMPERIAL       PTCLDY    42  28  57 NW9       30.07R
LEXINGTON      CLOUDY    36  30  79 N6        30.05R WCI  31
MCCOOK         PTCLDY    38  30  73 W7        30.05R WCI  33
$$

NEZ005>010-023>029-035>040-094-110400-
NORTH CENTRAL NEBRASKA

CITY           SKY/WX    TMP DP  RH WIND       PRES   REMARKS
VALENTINE      PTCLDY    31  27  85 NE8       30.11R WCI  23
AINSWORTH      CLEAR     31  28  85 NE13      30.09R WCI  22
BROKEN BOW     CLEAR     37  30  75 N10       30.05R WCI  30
ORD            CLEAR     31  27  85 NE7       30.07R WCI  24
$$

NEZ041-046>049-061>064-073>077-083>087-110400-
SOUTH CENTRAL NEBRASKA

CITY           SKY/WX    TMP DP  RH WIND       PRES   REMARKS
GRAND ISLAND   PTCLDY    30  26  85 NE10      30.07R WCI  21
AURORA         CLOUDY    31  28  90 NE12      30.06R WCI  22
HASTINGS       CLOUDY    33  28  81 NE10      30.04R WCI  25
HEBRON         CLOUDY    35  31  85 NE8       30.03R WCI  29
KEARNEY *      CLOUDY    36  30  80 NE8       30.06R WCI  29
YORK           PTCLDY    30  27  86 NE10      30.06R WCI  21
$$

NEZ011>018-030>034-042>045-110400-
NORTHEAST NEBRASKA

CITY           SKY/WX    TMP DP  RH WIND       PRES   REMARKS
NORFOLK        CLOUDY    22  18  85 NE7       30.11R WCI  13
ALBION         PTCLDY    28  23  84 N5        30.10R WCI  22
BLAIR          CLOUDY    23  19  86 NE16      30.09R WCI  10
COLUMBUS *     CLEAR     25  12  58 E7        30.11R WCI  17
FREMONT        CLOUDY    23  18  81 NE8       30.12R WCI  14
TEKAMAH        CLOUDY    21  16  81 NE9       30.15R WCI  11
$$

NEZ050>053-065>068-078-088>093-110400-
SOUTHEAST NEBRASKA

CITY           SKY/WX    TMP DP  RH WIND       PRES   REMARKS
LINCOLN        CLOUDY    30  24  78 N16       30.08R WCI  19
OMAHA EPPLEY   CLOUDY    25  19  78 NE8       30.12R WCI  16
BEATRICE       CLOUDY    33  28  83 N6        30.04R WCI  27
FALLS CITY     CLOUDY    32  22  66 E9        30.01R WCI  24
NEBRASKA CITY  CLOUDY    29  26  86 NE14      30.06R WCI  19
$$

NEZ044-045-051>053-067-110400-
OMAHA AREA

CITY           SKY/WX    TMP DP  RH WIND       PRES   REMARKS
OMAHA EPPLEY   CLOUDY    25  19  78 NE8       30.12R WCI  16
BLAIR          CLOUDY    23  19  86 NE16      30.09R WCI  10
FREMONT        CLOUDY    23  18  81 NE8       30.12R WCI  14
OFFUTT AFB     CLOUDY    25  21  83 NE8       30.10R WCI  16
WAHOO          FAIR      23  19  87 N10       30.10R WCI  12
$$




USA.gov is the U.S. government's official web portal to all federal, state and local government web resources and services.